Mecca, Saudi Arabia

12:29 PM AST on February 24, 2017 (GMT +0300)
Makkah

Weather History for OEMK - November, 2012

Change the Weather History Date:

Monday, November 26, 2012

  Actual Average Record
Temperature  
Mean Temperature 82 °F -  
Max Temperature 89 °F 88 °F 99 °F (2013)
Min Temperature 75 °F 69 °F 62 °F (1997)
Cooling Degree Days 17    
Growing Degree Days 32 (Base 50)    
Moisture  
Dew Point 57 °F    
Average Humidity 44    
Maximum Humidity 61    
Minimum Humidity 24    
Precipitation  
Precipitation 0.00 in - - ()
Sea Level Pressure  
Sea Level Pressure 29.89 in    
Wind  
Wind Speed 1 mph ()    
Max Wind Speed 4 mph    
Max Gust Speed -    
Visibility 6.1 miles    
Events      
Averages and records for this station are not official NWS values.
T = Trace of Precipitation, MM = Missing Value Source: Averaged Metar Reports

Daily Weather History Graph

Daily Weather History Graph

Search for Another Location

Airport or City:

Trip Planner

Search our weather history database for the weather conditions in past years. The results will help you decide how hot, cold, wet, or windy it might be!

Date:

Astronomy

Nov. 26, 2012 Rise Set
Actual Time 6:39 AM AST 5:37 PM AST
Civil Twilight 6:15 AM AST 6:01 PM AST
Nautical Twilight 5:47 AM AST 6:28 PM AST
Astronomical Twilight 5:20 AM AST 6:55 PM AST
Moon 4:09 PM AST (11/26) 4:39 AM AST (11/26)
Length of Visible Light 11h 46m
Length of Day
10h 58m
Waxing Gibbous, 96% of the Moon is Illuminated
Nov 26
Waxing Gibbous
Nov 28
Full
Dec 6
Last Quarter
Dec 13
New
Dec 20
First Quarter

Hourly Weather History & Observations

Time (AST) Temp. Heat Index Dew Point Humidity Pressure Visibility Wind Dir Wind Speed Gust Speed Precip Events Conditions
12:00 AM 78 °F - 61 °F 46% 29.86 in 6 mi Calm Calm - -   Partly Cloudy
12:00 AM 77.0 °F - 60.8 °F 57% 29.89 in 6.2 mi Calm Calm - N/A   Scattered Clouds
1:00 AM 77.0 °F - 60.8 °F 57% 29.89 in 6.2 mi Calm Calm - N/A   Partly Cloudy
2:00 AM 77.0 °F - 62.6 °F 61% 29.89 in 6.2 mi Calm Calm - N/A   Partly Cloudy
3:00 AM 76 °F - 61 °F 50% 29.84 in 6 mi Calm Calm - -   Scattered Clouds
3:00 AM 77.0 °F - 60.8 °F 57% 29.86 in - Calm Calm - N/A   Clear
4:00 AM 75.2 °F - 60.8 °F 61% 29.89 in 6.2 mi Calm Calm - N/A   Scattered Clouds
5:00 AM 75.2 °F - 60.8 °F 61% 29.89 in 6.2 mi Calm Calm - N/A   Scattered Clouds
6:00 AM 75 °F - 61 °F 52% 29.86 in 6 mi Calm Calm - -   Partly Cloudy
6:00 AM 75.2 °F - 60.8 °F 61% 29.89 in 6.2 mi Calm Calm - N/A   Scattered Clouds
7:00 AM 75.2 °F - 59.0 °F 57% 29.92 in 6.2 mi Calm Calm - N/A   Scattered Clouds
8:00 AM 75.2 °F - 60.8 °F 61% 29.92 in 6.2 mi Calm Calm - N/A   Scattered Clouds
9:00 AM 78 °F - 57 °F 38% 29.92 in 6 mi Calm Calm - -   Scattered Clouds
9:00 AM 78.8 °F - 57.2 °F 47% 29.95 in 6.2 mi Calm Calm - N/A   Scattered Clouds
10:00 AM 80.6 °F 80.5 °F 55.4 °F 42% 29.95 in - Calm Calm - N/A   Clear
11:00 AM 82.4 °F 81.4 °F 53.6 °F 37% 29.95 in - Calm Calm - N/A   Clear
12:00 PM 85 °F - 55 °F 26% 29.89 in 6 mi Calm Calm - -   Partly Cloudy
12:00 PM 84.2 °F 83.0 °F 55.4 °F 37% 29.92 in - Calm Calm - N/A   Clear
1:00 PM 87.8 °F 86.5 °F 57.2 °F 35% 29.89 in - Calm Calm - N/A   Clear
2:00 PM 87.8 °F 86.5 °F 57.2 °F 35% 29.89 in - NNW 3.5 mph - N/A   Clear
3:00 PM 89 °F - 57 °F 24% 29.83 in 6 mi WNW 2.3 mph - -   Scattered Clouds
3:00 PM 89.6 °F 88.1 °F 57.2 °F 33% 29.86 in 6.2 mi WNW 2.3 mph - N/A   Scattered Clouds
4:00 PM 87.8 °F 86.5 °F 57.2 °F 35% 29.86 in - West 2.3 mph - N/A   Clear
5:00 PM 86.0 °F 84.2 °F 53.6 °F 33% 29.86 in - NNW 2.3 mph - N/A   Clear
6:00 PM 83 °F - 54 °F 26% 29.84 in 6 mi NNW 2.3 mph - -   Partly Cloudy
6:00 PM 82.4 °F 81.4 °F 53.6 °F 37% 29.86 in - NNW 2.3 mph - N/A   Clear
7:00 PM 80.6 °F 80.3 °F 53.6 °F 39% 29.89 in - WNW 2.3 mph - N/A   Clear
8:00 PM 80.6 °F 80.3 °F 53.6 °F 39% 29.92 in - WNW 2.3 mph - N/A   Clear
9:00 PM 81 °F - 54 °F 28% 29.89 in 6 mi NNE 2.3 mph - -  
9:00 PM 80.6 °F 80.3 °F 53.6 °F 39% 29.92 in - NNE 2.3 mph - N/A   Clear
10:00 PM 80.6 °F 80.3 °F 53.6 °F 39% 29.92 in - North 2.3 mph - N/A   Clear
11:00 PM 78.8 °F - 55.4 °F 44% 29.92 in 6.2 mi Calm Calm - N/A   Scattered Clouds